1515952801.02,10093,9.0,73334.3,-14.79,-46.35,-46.21,0,*65
1515952802.31,10094,9.0,73332.3,-14.75,-46.15,-46.27,0,*6A
1515952803.57,10095,9.0,73334.0,-14.79,-46.35,-46.41,0,*65
1515952804.84,10096,9.0,73330.0,-14.75,-46.35,-46.27,0,*6A
1515952806.08,10097,9.0,73332.8,-14.79,-46.35,-46.21,0,*61
1515952807.34,10098,9.0,73330.5,-14.75,-46.27,-46.35,0,*64
1515952808.58,10099,9.0,73332.5,-14.75,-46.35,-46.35,0,*66
1515952809.85,10100,9.0,73334.0,-14.75,-46.35,-46.49,0,*6C
1515952811.11,10101,9.0,73332.8,-14.75,-46.35,-46.49,0,*6D
1515952812.35,10102,9.0,73334.3,-14.75,-46.35,-46.35,0,*65
1515952813.62,10103,9.0,73332.3,-14.75,-46.27,-46.35,0,*67
1515952814.91,10104,9.0,73332.8,-14.75,-46.27,-46.49,0,*6B
1515952816.2,10105,9.0,73332.8,-14.75,-46.27,-46.27,0,*62
1515952817.49,10106,9.0,73334.3,-14.75,-46.27,-46.27,0,*61
1515952818.78,10107,9.0,73334.5,-14.75,-46.49,-46.49,0,*60
1515952820.07,10108,9.0,73336.5,-14.75,-46.49,-46.49,0,*6F
1515952821.31,10109,9.0,73332.3,-14.75,-46.35,-46.35,0,*6E
1515952822.61,10110,9.0,73334.8,-14.75,-46.27,-46.49,0,*6E
1515952823.87,10111,9.0,73332.3,-14.75,-46.35,-46.49,0,*6C
1515952825.14,10112,9.0,73334.0,-14.75,-46.35,-46.49,0,*6F
1515952826.43,10113,9.0,73334.8,-14.75,-46.49,-46.49,0,*65
1515952827.69,10114,9.0,73334.0,-14.75,-46.49,-46.35,0,*69
1515952828.96,10115,9.0,73336.5,-14.75,-46.27,-46.35,0,*60
1515952830.2,10116,9.0,73336.5,-14.75,-46.55,-46.55,0,*60
1515952831.44,10117,9.0,73334.0,-14.73,-46.55,-46.49,0,*6A
1515952832.68,10118,9.0,73334.3,-14.73,-46.49,-46.35,0,*63
1515952833.92,10119,9.0,73334.5,-14.75,-46.55,-46.55,0,*6F
1515952835.19,10120,9.0,73334.8,-14.73,-46.49,-46.49,0,*63
1515952836.43,10121,9.0,73334.3,-14.75,-46.35,-46.55,0,*62
1515952837.64,10122,9.0,73338.8,-14.73,-46.55,-46.55,0,*61
1515952838.9,10123,9.0,73332.3,-14.75,-46.55,-46.69,0,*69
1515952840.16,10124,9.0,73338.0,-14.75,-46.55,-46.69,0,*6E
1515952841.42,10125,9.0,73332.3,-14.73,-46.69,-46.69,0,*66
1515952842.68,10126,9.0,73334.3,-14.75,-46.75,-46.89,0,*60
1515952843.92,10127,9.0,73334.8,-14.73,-46.89,-46.75,0,*67
1515952845.16,10128,9.0,73334.3,-14.73,-46.75,-46.89,0,*68
1515952846.4,10129,9.0,73334.8,-14.73,-46.55,-46.69,0,*65
1515952847.65,10130,9.0,73334.8,-14.75,-46.75,-46.89,0,*67
1515952848.89,10131,9.0,73332.5,-14.73,-46.75,-46.89,0,*60
1515952850.15,10132,9.0,73336.3,-14.75,-46.97,-46.89,0,*69
1515952851.42,10133,9.0,73338.0,-14.73,-46.89,-46.89,0,*61
1515952852.66,10134,9.0,73332.5,-14.75,-46.97,-46.97,0,*60
1515952853.9,10135,9.0,73336.8,-14.75,-46.97,-46.97,0,*61
1515952855.16,10136,9.0,73334.3,-14.75,-46.69,-46.75,0,*6F
1515952856.44,10137,9.0,73336.8,-14.75,-46.69,-46.89,0,*6D
1515952857.68,10138,9.0,73332.3,-14.75,-46.55,-46.55,0,*6C
1515952858.96,10139,9.0,73336.0,-14.75,-46.69,-46.69,0,*6D
1515952860.2,10140,9.0,73332.0,-14.73,-46.75,-46.89,0,*66
1515952861.46,10141,9.0,73336.8,-14.73,-46.89,-46.89,0,*64
1515952862.72,10142,9.0,73332.3,-14.75,-46.75,-46.89,0,*62
1515952863.98,10143,9.0,73338.0,-14.75,-46.69,-46.75,0,*6D
1515952865.22,10144,9.0,73334.0,-14.75,-46.55,-46.55,0,*67
1515952866.45,10145,9.0,73336.8,-14.73,-46.75,-46.89,0,*63
1515952867.71,10146,9.0,73336.0,-14.75,-46.75,-46.89,0,*66
1515952868.97,10147,9.0,73336.5,-14.73,-46.69,-46.89,0,*6C
1515952870.18,10148,9.0,73336.3,-14.73,-46.75,-46.75,0,*6D
1515952871.44,10149,9.0,73338.3,-14.75,-46.75,-46.89,0,*69
1515952872.71,10150,9.0,73332.5,-14.73,-46.89,-46.89,0,*64
1515952873.95,10151,9.0,73338.0,-14.73,-46.97,-46.89,0,*6A
1515952875.21,10152,9.0,73334.5,-14.75,-46.75,-46.89,0,*63
1515952876.47,10153,9.0,73336.8,-14.75,-46.97,-46.89,0,*6E
1515952877.74,10154,9.0,73332.3,-14.73,-46.89,-46.89,0,*60
1515952879.01,10155,9.0,73336.8,-14.73,-46.89,-46.89,0,*61
1515952880.3,10156,9.0,73334.5,-14.75,-46.89,-46.89,0,*64
1515952881.56,10157,9.0,73336.5,-14.75,-46.75,-46.69,0,*68
1515952882.84,10158,9.0,73334.0,-14.75,-46.69,-46.69,0,*6A
1515952884.1,10159,9.0,73336.0,-14.73,-46.69,-46.69,0,*6D
1515952885.34,10160,9.0,73334.0,-14.73,-46.69,-46.75,0,*6A
1515952886.62,10161,9.06,73340.0,-14.75,-46.69,-46.89,0,*6E
1515952887.85,10162,9.0,73332.8,-14.75,-46.75,-46.75,0,*63
1515952889.09,10163,9.0,73336.3,-14.75,-46.75,-46.75,0,*62
1515952890.33,10164,9.0,73336.8,-14.73,-46.97,-46.89,0,*6C
1515952891.62,10165,9.0,73336.5,-14.75,-46.89,-46.89,0,*64
1515952892.88,10166,9.0,73334.8,-14.75,-46.75,-46.89,0,*64
1515952894.11,10167,9.0,73336.8,-14.75,-46.55,-46.75,0,*64
1515952895.35,10168,9.0,73336.0,-14.75,-46.75,-46.75,0,*69
1515952896.56,10169,9.0,73334.5,-14.73,-46.75,-46.75,0,*6E
1515952897.82,10170,9.0,73332.3,-14.75,-46.69,-46.75,0,*6D
1515952899.03,10171,9.0,73332.8,-14.73,-46.55,-46.55,0,*67
1515952900.24,10172,9.0,73332.5,-14.73,-46.75,-46.75,0,*64
1515952901.53,10173,9.0,73334.5,-14.75,-46.49,-46.69,0,*61
1515952902.74,10174,9.0,73336.3,-14.73,-46.55,-46.55,0,*62
1515952903.99,10175,9.0,73336.3,-14.73,-46.49,-46.55,0,*6E
1515952905.22,10176,9.0,73334.3,-14.73,-46.75,-46.69,0,*6D
1515952906.46,10177,9.0,73334.0,-14.75,-46.55,-46.55,0,*67
1515952907.69,10178,9.0,73334.5,-14.73,-46.55,-46.69,0,*61
1515952908.91,10179,9.0,73332.0,-14.73,-46.75,-46.55,0,*6D
1515952910.17,10180,9.0,73336.8,-14.73,-46.49,-46.69,0,*6B
1515952911.39,10181,9.0,73332.0,-14.73,-46.55,-46.55,0,*68
1515952912.67,10182,9.0,73334.0,-14.71,-46.41,-46.49,0,*61
1515952913.96,10183,9.0,73334.8,-14.71,-46.41,-46.49,0,*60
1515952915.23,10184,9.0,73332.8,-14.69,-46.49,-46.49,0,*66
1515952916.48,10185,9.0,73334.0,-14.69,-46.41,-46.61,0,*65
1515952917.76,10186,9.0,73332.0,-14.71,-46.41,-46.41,0,*6D
1515952919.05,10187,9.0,73334.5,-14.71,-46.41,-46.49,0,*64
1515952920.31,10188,9.0,73334.0,-14.69,-46.49,-46.41,0,*62
1515952921.59,10189,9.0,73334.5,-14.71,-46.61,-46.61,0,*62
1515952922.86,10190,9.0,73332.8,-14.69,-46.61,-46.49,0,*69
1515952924.12,10191,9.06,73338.3,-14.69,-46.49,-46.49,0,*62
1515952925.41,10192,9.0,73334.8,-14.71,-46.61,-46.61,0,*68
1515952926.69,10193,9.0,73336.8,-14.71,-46.61,-46.61,0,*69
1515952927.95,10194,9.0,73334.5,-14.69,-46.61,-46.61,0,*67
1515952929.23,10195,9.0,73334.3,-14.71,-46.69,-46.61,0,*67
1515952930.49,10196,9.0,73336.8,-14.69,-46.41,-46.49,0,*6D
1515952931.74,10197,9.0,73338.5,-14.69,-46.61,-46.61,0,*64
1515952933.03,10198,9.0,73336.8,-14.71,-46.61,-46.61,0,*62
1515952934.24,10199,9.0,73338.3,-14.69,-46.83,-46.83,0,*6A
1515952935.48,10200,9.0,73332.8,-14.69,-46.69,-46.83,0,*6D
1515952936.74,10201,9.0,73332.8,-14.69,-46.61,-46.61,0,*68
1515952937.96,10202,9.06,73338.5,-14.69,-46.83,-46.83,0,*6B
1515952939.2,10203,9.0,73334.8,-14.69,-46.69,-46.83,0,*6E
1515952940.46,10204,9.0,73334.0,-14.69,-46.61,-46.69,0,*65
1515952941.7,10205,9.0,73334.0,-14.69,-46.69,-46.83,0,*68
1515952942.95,10206,9.0,73336.8,-14.69,-46.69,-46.61,0,*67
1515952944.21,10207,9.0,73332.8,-14.69,-46.69,-46.69,0,*6E
1515952945.43,10208,9.0,73336.8,-14.69,-46.83,-46.83,0,*61
1515952946.67,10209,9.0,73336.3,-14.69,-46.83,-46.69,0,*64
1515952947.93,10210,9.0,73338.3,-14.69,-46.61,-46.69,0,*60
1515952949.18,10211,9.0,73336.0,-14.69,-46.61,-46.61,0,*69
1515952950.44,10212,9.0,73336.8,-14.69,-46.61,-46.69,0,*62
1515952951.66,10213,9.0,73330.5,-14.69,-46.83,-46.83,0,*6B
1515952952.94,10214,9.0,73334.3,-14.63,-46.61,-46.61,0,*66
1515952954.2,10215,9.0,73336.3,-14.67,-46.83,-46.61,0,*6F
1515952955.44,10216,9.0,73332.5,-14.67,-46.55,-46.75,0,*62
1515952956.68,10217,9.0,73338.8,-14.67,-46.75,-46.75,0,*61
1515952957.92,10218,9.0,73338.0,-14.69,-46.61,-46.83,0,*6C
1515952959.14,10219,9.0,73334.3,-14.69,-46.83,-46.83,0,*61
1515952960.4,10220,9.0,73336.8,-14.67,-46.61,-46.75,0,*60
1515952961.66,10221,9.0,73336.8,-14.67,-46.61,-46.75,0,*61
1515952962.9,10222,9.0,73336.0,-14.69,-46.83,-46.69,0,*6D
1515952964.14,10223,9.0,73334.0,-14.67,-46.83,-46.75,0,*6F
1515952965.38,10224,9.0,73334.0,-14.67,-46.75,-46.75,0,*61
1515952966.63,10225,9.0,73332.5,-14.67,-46.75,-46.61,0,*65
1515952967.88,10226,9.0,73336.5,-14.67,-46.83,-46.83,0,*63
1515952969.12,10227,9.0,73332.8,-14.67,-46.97,-46.83,0,*67
1515952970.39,10228,9.0,73336.8,-14.67,-46.61,-46.75,0,*68
1515952971.65,10229,9.0,73338.8,-14.67,-46.61,-46.75,0,*69
1515952972.91,10230,9.0,73336.8,-14.63,-46.61,-46.75,0,*65
1515952974.17,10231,9.0,73338.5,-14.67,-46.61,-46.75,0,*60
1515952975.4,10232,9.0,73336.5,-14.63,-46.83,-46.97,0,*67
1515952976.67,10233,9.0,73334.8,-14.67,-46.61,-46.75,0,*62
1515952977.92,10234,9.0,73336.0,-14.63,-46.75,-46.61,0,*61
1515952979.16,10235,9.0,73336.8,-14.67,-46.55,-46.75,0,*63
1515952980.44,10236,9.0,73336.0,-14.67,-46.61,-46.61,0,*62
1515952981.68,10237,9.0,73336.0,-14.67,-46.83,-46.75,0,*6A
1515952982.94,10238,9.0,73334.3,-14.67,-46.55,-46.61,0,*6B
1515952984.2,10239,9.0,73334.5,-14.63,-46.61,-46.75,0,*6C
1515952985.48,10240,9.0,73332.8,-14.67,-46.61,-46.61,0,*63
1515952986.72,10241,9.0,73338.3,-14.67,-46.55,-46.55,0,*62
1515952987.98,10242,9.0,73338.8,-14.67,-46.55,-46.61,0,*66
1515952989.21,10243,9.0,73336.5,-14.67,-46.75,-46.75,0,*60
1515952990.47,10244,9.0,73334.0,-14.67,-46.61,-46.75,0,*62
1515952991.71,10245,9.0,73334.5,-14.67,-46.75,-46.75,0,*66
1515952992.96,10246,9.0,73336.3,-14.63,-46.75,-46.61,0,*64
1515952994.19,10247,9.0,73334.8,-14.63,-46.55,-46.55,0,*60
1515952995.43,10248,9.0,73334.5,-14.63,-46.75,-46.75,0,*6F
1515952996.66,10249,9.0,73336.5,-14.67,-46.75,-46.75,0,*6A
1515952997.9,10250,9.0,73338.3,-14.67,-46.75,-46.75,0,*62
1515952999.13,10251,9.0,73334.8,-14.67,-46.75,-46.75,0,*63
1515953000.37,10252,9.0,73336.5,-14.67,-46.75,-46.75,0,*60
1515953001.63,10253,9.0,73334.0,-14.63,-46.61,-46.55,0,*62
1515953002.88,10254,9.0,73334.0,-14.67,-46.41,-46.55,0,*63
1515953004.17,10255,9.0,73334.3,-14.67,-46.61,-46.61,0,*67
1515953005.42,10256,9.0,73338.0,-14.63,-46.55,-46.61,0,*67
1515953006.66,10257,9.0,73332.3,-14.67,-46.55,-46.55,0,*65
1515953007.92,10258,9.0,73334.0,-14.63,-46.61,-46.75,0,*6B
1515953009.16,10259,9.0,73332.8,-14.63,-46.83,-46.75,0,*66
1515953010.39,10260,9.0,73334.5,-14.63,-46.75,-46.75,0,*65
1515953011.62,10261,9.0,73332.3,-14.63,-46.75,-46.83,0,*6D
1515953012.9,10262,9.0,73336.0,-14.63,-46.61,-46.61,0,*67
1515953014.14,10263,9.0,73332.5,-14.67,-46.83,-46.75,0,*6B
1515953015.38,10264,9.0,73338.5,-14.63,-46.83,-46.75,0,*68
1515953016.66,10265,9.0,73334.3,-14.63,-46.61,-46.61,0,*60
1515953017.94,10266,9.0,73336.0,-14.63,-46.61,-46.61,0,*63
1515953019.17,10267,9.0,73332.8,-14.63,-46.55,-46.75,0,*60
1515953020.41,10268,9.0,73336.3,-14.63,-46.75,-46.75,0,*6D
1515953021.66,10269,9.0,73332.3,-14.63,-46.61,-46.75,0,*69
1515953022.94,10270,9.0,73334.5,-14.63,-46.61,-46.61,0,*64
1515953024.17,10271,9.0,73336.0,-14.63,-46.75,-46.75,0,*65
1515953025.45,10272,9.0,73336.8,-14.63,-46.61,-46.61,0,*66
1515953026.71,10273,9.0,73334.8,-14.63,-46.55,-46.61,0,*60
1515953027.97,10274,9.0,73336.5,-14.63,-46.61,-46.75,0,*65
1515953029.2,10275,9.0,73334.0,-14.63,-46.75,-46.75,0,*61
1515953030.43,10276,9.0,73336.5,-14.63,-46.75,-46.75,0,*62
1515953031.66,10277,9.0,73332.0,-14.61,-46.75,-46.69,0,*6C
1515953032.89,10278,9.0,73334.5,-14.61,-46.75,-46.69,0,*63
1515953034.13,10279,9.0,73338.0,-14.61,-46.69,-46.75,0,*62
1515953035.39,10280,9.0,73334.8,-14.61,-46.69,-46.69,0,*69
1515953036.64,10281,9.0,73332.8,-14.61,-46.69,-46.69,0,*68
1515953037.9,10282,9.0,73332.3,-14.61,-46.49,-46.69,0,*69
1515953039.11,10283,9.0,73334.5,-14.61,-46.55,-46.55,0,*6A
1515953040.35,10284,9.0,73336.5,-14.61,-46.55,-46.69,0,*62
1515953041.58,10285,9.0,73334.0,-14.61,-46.55,-46.69,0,*63
1515953042.84,10286,9.0,73336.3,-14.61,-46.69,-46.69,0,*6F
1515953044.1,10287,9.0,73338.3,-14.61,-46.69,-46.69,0,*6E
1515953045.33,10288,9.0,73332.8,-14.61,-46.75,-46.69,0,*6C
1515953046.6,10289,9.0,73336.3,-14.59,-46.75,-46.69,0,*66
1515953047.83,10290,9.0,73336.0,-14.61,-46.55,-46.69,0,*67
1515953049.07,10291,9.0,73336.3,-14.61,-46.69,-46.75,0,*64
1515953050.28,10292,9.0,73338.8,-14.61,-46.75,-46.55,0,*68
1515953051.51,10293,9.0,73334.0,-14.61,-46.69,-46.55,0,*64
1515953052.76,10294,9.0,73338.8,-14.59,-46.55,-46.55,0,*67
1515953053.99,10295,9.0,73334.5,-14.61,-46.55,-46.69,0,*62
1515953055.23,10296,9.0,73334.8,-14.61,-46.55,-46.69,0,*61
1515953056.5,10297,9.0,73332.8,-14.59,-46.55,-46.69,0,*6B
1515953057.75,10298,9.0,73338.8,-14.61,-46.69,-46.69,0,*60
1515953058.96,10299,9.0,73332.5,-14.61,-46.75,-46.75,0,*61
1515953060.23,10300,9.0,73336.0,-14.59,-46.69,-46.75,0,*66
1515953061.53,10301,9.0,73332.5,-14.59,-46.69,-46.69,0,*6A
1515953062.78,10302,9.0,73338.8,-14.61,-46.69,-46.69,0,*62
1515953064.05,10303,9.0,73334.3,-14.59,-46.75,-46.89,0,*6B
1515953065.33,10304,9.0,73336.0,-14.59,-46.89,-46.75,0,*6C
1515953066.61,10305,9.0,73336.5,-14.59,-46.89,-46.75,0,*6D
1515953067.85,10306,9.0,73334.3,-14.59,-46.75,-46.75,0,*6D
1515953069.06,10307,9.0,73338.3,-14.61,-46.75,-46.75,0,*67
1515953070.32,10308,9.0,73334.8,-14.61,-46.69,-46.69,0,*68
1515953071.55,10309,9.0,73336.5,-14.61,-46.69,-46.75,0,*64
1515953072.8,10310,9.0,73338.3,-14.61,-46.89,-46.75,0,*62
1515953074.04,10311,9.0,73336.3,-14.59,-46.55,-46.55,0,*6B
1515953075.31,10312,9.0,73336.5,-14.59,-46.55,-46.69,0,*67
1515953076.58,10313,9.0,73334.5,-14.59,-46.55,-46.69,0,*66
1515953077.88,10314,9.0,73338.0,-14.59,-46.49,-46.69,0,*6C
1515953079.13,10315,9.0,73338.5,-14.59,-46.75,-46.75,0,*6F
1515953080.37,10316,9.0,73338.8,-14.59,-46.75,-46.75,0,*6C
1515953081.62,10317,9.0,73338.8,-14.59,-46.75,-46.75,0,*6D
1515953082.88,10318,9.0,73336.8,-14.59,-46.75,-46.69,0,*6F
1515953084.18,10319,9.0,73336.8,-14.59,-46.89,-46.89,0,*63
1515953085.45,10320,9.0,73336.8,-14.61,-46.89,-46.89,0,*62
1515953086.66,10321,9.0,73334.3,-14.61,-46.75,-46.75,0,*63
1515953087.93,10322,9.0,73336.5,-14.59,-46.75,-46.89,0,*68
1515953089.17,10323,9.0,73334.3,-14.59,-46.55,-46.75,0,*68
1515953090.42,10324,9.0,73336.8,-14.59,-46.55,-46.55,0,*6D
1515953091.67,10325,9.0,73338.5,-14.59,-46.55,-46.55,0,*6C
1515953092.94,10326,9.0,73336.3,-14.59,-46.55,-46.69,0,*60
1515953094.21,10327,9.0,73334.8,-14.59,-46.69,-46.75,0,*63
1515953095.42,10328,9.0,73336.8,-14.61,-46.75,-46.75,0,*6A
1515953096.7,10329,9.0,73336.8,-14.59,-46.89,-46.75,0,*63
1515953097.91,10330,9.0,73336.3,-14.61,-46.75,-46.75,0,*63
1515953099.18,10331,9.0,73336.3,-14.59,-46.89,-46.75,0,*6A
1515953100.4,10332,9.0,73336.5,-14.61,-46.97,-46.97,0,*61
1515953101.68,10333,9.0,73334.5,-14.59,-46.89,-46.75,0,*68
1515953102.92,10334,9.0,73336.0,-14.59,-46.75,-46.75,0,*6C
1515953104.21,10335,9.0,73334.0,-14.59,-46.69,-46.69,0,*6D
1515953105.51,10336,9.0,73338.8,-14.59,-46.69,-46.69,0,*6E
1515953106.8,10337,9.0,73336.8,-14.59,-46.69,-46.69,0,*6F
1515953108.07,10338,9.0,73336.3,-14.59,-46.75,-46.69,0,*6D
1515953109.36,10339,9.0,73338.3,-14.59,-46.69,-46.69,0,*61
1515953110.66,10340,9.0,73336.0,-14.59,-46.69,-46.69,0,*6F
1515953111.92,10341,9.0,73332.0,-14.59,-46.75,-46.69,0,*63
1515953113.19,10342,9.0,73332.8,-14.59,-46.75,-46.69,0,*60
1515953114.47,10343,9.0,73336.0,-14.59,-46.89,-46.75,0,*6F
1515953115.72,10344,9.0,73334.3,-14.57,-46.89,-46.75,0,*66
1515953116.94,10345,9.0,73334.8,-14.57,-46.75,-46.75,0,*64
1515953118.17,10346,9.0,73338.5,-14.57,-46.97,-46.97,0,*67
1515953119.45,10347,9.0,73338.0,-14.59,-46.89,-46.75,0,*6B
1515953120.69,10348,9.0,73336.3,-14.59,-46.75,-46.75,0,*67
1515953121.96,10349,9.0,73334.0,-14.59,-46.75,-46.89,0,*65
1515953123.23,10350,9.0,73334.8,-14.59,-46.75,-46.89,0,*6D
1515953124.47,10351,9.0,73334.3,-14.59,-46.75,-46.75,0,*6F
1515953125.75,10352,9.0,73332.3,-14.59,-46.69,-46.75,0,*61
1515953127.02,10353,9.0,73338.5,-14.59,-46.69,-46.75,0,*60
1515953128.31,10354,9.0,73334.3,-14.59,-46.49,-46.69,0,*68
1515953129.56,10355,9.0,73332.5,-14.59,-46.55,-46.55,0,*6B
1515953130.86,10356,9.0,73336.3,-14.59,-46.49,-46.69,0,*6A
1515953132.15,10357,9.0,73332.3,-14.59,-46.69,-46.69,0,*69
1515953133.4,10358,9.0,73334.5,-14.57,-46.75,-46.69,0,*65
1515953134.64,10359,9.0,73332.5,-14.57,-46.75,-46.89,0,*6A
1515953135.91,10360,9.0,73334.3,-14.57,-46.69,-46.69,0,*63
1515953137.18,10361,9.0,73336.5,-14.57,-46.69,-46.69,0,*62
1515953138.45,10362,9.0,73336.0,-14.57,-46.69,-46.69,0,*61
1515953139.76,10363,9.0,73334.8,-14.55,-46.89,-46.69,0,*6C
1515953140.98,10364,9.0,73332.5,-14.57,-46.97,-47.17,0,*6E
1515953142.26,10365,9.0,73334.3,-14.57,-46.89,-46.89,0,*66
1515953143.51,10366,9.0,73332.5,-14.57,-46.69,-46.75,0,*68
1515953144.76,10367,9.0,73332.0,-14.57,-46.55,-46.49,0,*69
1515953146.03,10368,9.0,73332.0,-14.57,-46.49,-46.69,0,*69
1515953147.31,10369,9.0,73332.8,-14.57,-46.49,-46.69,0,*68
1515953148.53,10370,9.0,73332.3,-14.57,-46.55,-46.55,0,*62
1515953149.8,10371,9.0,73334.5,-14.57,-46.69,-46.69,0,*63
1515953151.1,10372,9.0,73334.3,-14.55,-46.41,-46.41,0,*62
1515953152.37,10373,9.0,73336.3,-14.57,-46.41,-46.49,0,*69
1515953153.67,10374,9.0,73332.0,-14.55,-46.61,-46.61,0,*64
1515953154.94,10375,9.0,73332.3,-14.55,-46.69,-46.75,0,*68
1515953156.17,10376,9.0,73332.3,-14.57,-46.97,-46.75,0,*68
1515953157.39,10377,9.0,73334.5,-14.57,-46.75,-46.75,0,*65
1515953158.66,10378,9.0,73332.8,-14.57,-46.69,-46.69,0,*6A
1515953159.96,10379,9.0,73334.0,-14.55,-46.69,-46.61,0,*61
1515953161.25,10380,9.0,73332.3,-14.55,-46.61,-46.61,0,*6F
1515953162.55,10381,9.0,73332.0,-14.55,-46.49,-46.61,0,*64
1515953163.85,10382,9.0,73332.0,-14.55,-46.61,-46.61,0,*6D
1515953165.15,10383,9.0,73332.5,-14.55,-46.61,-46.49,0,*66
1515953166.44,10384,9.0,73332.3,-14.55,-46.69,-46.69,0,*6B
1515953167.74,10385,9.0,73334.3,-14.55,-46.61,-46.69,0,*62
1515953169.04,10386,9.0,73332.0,-14.55,-46.61,-46.69,0,*61
1515953170.33,10387,9.0,73334.0,-14.55,-46.61,-46.61,0,*68
1515953171.63,10388,9.0,73334.8,-14.55,-46.61,-46.69,0,*6F
1515953172.93,10389,9.0,73332.5,-14.55,-46.61,-46.61,0,*66
1515953174.23,10390,9.0,73334.0,-14.55,-46.49,-46.49,0,*6E
1515953175.48,10391,9.0,73332.8,-14.53,-46.41,-46.55,0,*6C
1515953176.78,10392,9.0,73338.5,-14.55,-46.49,-46.61,0,*66
1515953178.01,10393,9.0,73332.0,-14.53,-46.55,-46.55,0,*6B
1515953179.24,10394,9.0,73332.3,-14.53,-46.55,-46.55,0,*6C
1515953180.53,10395,9.0,73332.3,-14.55,-46.61,-46.61,0,*6B
1515953181.76,10396,9.0,73336.3,-14.53,-46.55,-46.55,0,*6E
1515953183.01,10397,9.0,73334.3,-14.53,-46.61,-46.55,0,*68
1515953184.24,10398,9.0,73332.8,-14.53,-46.55,-46.55,0,*60
1515953185.49,10399,9.0,73336.0,-14.53,-46.61,-46.75,0,*64
1515953186.74,10400,9.0,73338.0,-14.53,-46.55,-46.61,0,*61
1515953188.01,10401,9.0,73336.0,-14.53,-46.61,-46.61,0,*67
1515953189.24,10402,9.0,73332.5,-14.49,-46.55,-46.55,0,*6F
1515953190.49,10403,9.0,73338.0,-14.53,-46.41,-46.55,0,*60
1515953191.74,10404,9.0,73332.5,-14.53,-46.55,-46.41,0,*67
1515953192.96,10405,9.0,73334.8,-14.49,-46.75,-46.55,0,*6A
1515953194.2,10406,9.0,73334.5,-14.49,-46.75,-46.61,0,*6E
1515953195.48,10407,9.0,73332.3,-14.55,-46.69,-46.83,0,*63
1515953196.76,10408,9.0,73332.5,-14.53,-46.61,-46.61,0,*6E
1515953198.0,10409,9.0,73332.5,-14.53,-46.75,-46.61,0,*6A
1515953199.24,10410,9.0,73332.3,-14.49,-46.75,-46.61,0,*69
1515953200.49,10411,9.0,73330.8,-14.49,-46.75,-46.61,0,*68
1515953201.76,10412,9.0,73332.5,-14.53,-46.61,-46.61,0,*65
1515953203.03,10413,9.0,73336.5,-14.49,-46.61,-46.61,0,*6F
1515953204.28,10414,9.0,73334.8,-14.53,-46.55,-46.41,0,*66
1515953205.51,10415,9.0,73332.5,-14.49,-46.55,-46.55,0,*69
1515953206.78,10416,9.0,73334.3,-14.53,-46.41,-46.41,0,*61
1515953208.01,10417,9.0,73334.3,-14.53,-46.55,-46.55,0,*60
1515953209.24,10418,9.0,73338.0,-14.53,-46.55,-46.55,0,*6F
1515953210.51,10419,9.0,73334.3,-14.49,-46.61,-46.61,0,*65
1515953211.74,10420,9.0,73334.8,-14.49,-46.55,-46.75,0,*6D
1515953213.01,10421,9.0,73334.3,-14.53,-46.61,-46.61,0,*65
1515953214.28,10422,9.0,73332.5,-14.49,-46.61,-46.61,0,*6D
1515953215.55,10423,9.0,73336.0,-14.49,-46.61,-46.61,0,*6C
1515953216.78,10424,9.0,73334.3,-14.49,-46.55,-46.75,0,*69
1515953218.0,10425,9.0,73332.0,-14.49,-46.75,-46.75,0,*6A
1515953219.23,10426,9.0,73336.0,-14.49,-46.83,-46.75,0,*60
1515953220.46,10427,9.0,73338.5,-14.49,-46.83,-46.75,0,*61
1515953221.7,10428,9.0,73336.3,-14.49,-46.75,-46.61,0,*62
1515953222.98,10429,9.0,73332.8,-14.49,-46.61,-46.61,0,*66
1515953224.22,10430,9.0,73332.0,-14.49,-46.55,-46.61,0,*69
1515953225.45,10431,9.0,73332.0,-14.49,-46.55,-46.55,0,*6F
1515953226.7,10432,9.0,73334.0,-14.49,-46.61,-46.55,0,*6B
1515953227.95,10433,9.0,73334.3,-14.49,-46.61,-46.55,0,*6A
1515953229.2,10434,9.0,73332.5,-14.49,-46.55,-46.61,0,*6D
1515953230.44,10435,9.0,73334.0,-14.49,-46.55,-46.61,0,*6C
1515953231.69,10436,9.0,73332.3,-14.49,-46.75,-46.61,0,*6D
1515953232.92,10437,9.0,73332.5,-14.49,-46.55,-46.55,0,*69
1515953234.17,10438,9.0,73336.3,-14.49,-46.61,-46.55,0,*61
1515953235.42,10439,9.0,73332.5,-14.49,-46.61,-46.55,0,*60
1515953236.72,10440,9.0,73338.5,-14.47,-46.49,-46.49,0,*67
1515953238.03,10441,9.0,73334.5,-14.47,-46.49,-46.49,0,*66
1515953239.3,10442,9.0,73334.0,-14.49,-46.61,-46.61,0,*6B
1515953240.53,10443,9.0,73334.8,-14.45,-46.55,-46.55,0,*66
1515953241.8,10444,9.0,73338.3,-14.47,-46.69,-46.55,0,*6C
1515953243.05,10445,9.0,73334.8,-14.47,-46.75,-46.55,0,*60
1515953244.3,10446,9.0,73332.8,-14.47,-46.55,-46.55,0,*61
1515953245.58,10447,9.0,73334.8,-14.47,-46.49,-46.55,0,*6D
1515953246.83,10448,9.0,73332.3,-14.47,-46.55,-46.55,0,*6F
1515953248.05,10449,9.0,73336.3,-14.45,-46.55,-46.55,0,*6C
1515953249.36,10450,9.0,73338.5,-14.47,-46.49,-46.49,0,*66
1515953250.58,10451,9.0,73336.0,-14.45,-46.55,-46.55,0,*65
1515953251.85,10452,9.0,73336.3,-14.45,-46.69,-46.69,0,*66
1515953253.1,10453,9.0,73336.5,-14.45,-46.69,-46.55,0,*68
1515953254.4,10454,9.0,73336.0,-14.47,-46.69,-46.69,0,*62
1515953255.67,10455,9.0,73338.8,-14.47,-46.75,-46.69,0,*6E
1515953256.94,10456,9.0,73336.5,-14.47,-46.75,-46.69,0,*6D
1515953258.19,10457,9.0,73338.5,-14.47,-46.83,-46.75,0,*68
1515953259.49,10458,9.0,73334.0,-14.47,-46.69,-46.69,0,*6E
1515953260.74,10459,9.0,73334.0,-14.47,-46.83,-46.75,0,*66
1515953262.0,10460,9.0,73336.5,-14.47,-46.83,-46.75,0,*6C
1515953263.27,10461,9.0,73332.5,-14.47,-46.69,-46.55,0,*6B
1515953264.52,10462,9.0,73336.3,-14.47,-46.55,-46.55,0,*67
1515953265.82,10463,9.0,73336.8,-14.47,-46.69,-46.69,0,*66
1515953267.06,10464,9.0,73336.0,-14.45,-46.75,-46.69,0,*6E
1515953268.34,10465,9.0,73332.5,-14.47,-46.83,-46.69,0,*64
1515953269.59,10466,9.0,73338.5,-14.47,-46.75,-46.83,0,*6A
1515953270.84,10467,9.0,73334.0,-14.45,-46.69,-46.75,0,*6D
1515953272.11,10468,9.0,73338.8,-14.47,-46.69,-46.75,0,*60
1515953273.37,10469,9.0,73338.8,-14.47,-46.97,-46.83,0,*69
1515953274.65,10470,9.0,73336.0,-14.47,-46.83,-46.69,0,*60
1515953275.92,10471,9.0,73334.0,-14.47,-46.69,-46.83,0,*61
1515953277.22,10472,9.0,73336.0,-14.47,-46.69,-46.69,0,*66
1515953278.47,10473,9.0,73334.8,-14.47,-46.55,-46.55,0,*67
1515953279.77,10474,9.06,73338.0,-14.47,-46.69,-46.69,0,*60
1515953280.99,10475,9.0,73338.3,-14.45,-46.75,-46.55,0,*61
1515953282.27,10476,9.0,73336.0,-14.47,-46.69,-46.55,0,*6D
1515953283.49,10477,9.0,73336.8,-14.45,-46.75,-46.55,0,*63
1515953284.73,10478,9.0,73334.5,-14.47,-46.75,-46.55,0,*6E
1515953285.98,10479,9.0,73332.3,-14.45,-46.75,-46.69,0,*62
1515953287.28,10480,9.0,73334.3,-14.47,-46.69,-46.69,0,*6B
1515953288.52,10481,9.0,73334.3,-14.47,-46.75,-46.75,0,*6A
1515953289.75,10482,9.0,73338.3,-14.45,-46.83,-46.83,0,*6B
1515953290.99,10483,9.0,73338.0,-14.45,-46.83,-46.83,0,*6A
1515953292.25,10484,9.0,73336.3,-14.47,-46.97,-46.83,0,*6A
1515953293.5,10485,9.0,73336.3,-14.47,-46.83,-46.83,0,*6E
1515953294.76,10486,9.0,73336.8,-14.47,-46.83,-46.75,0,*64
1515953296.03,10487,9.0,73336.8,-14.47,-46.75,-46.69,0,*61
1515953297.28,10488,9.0,73334.0,-14.47,-46.83,-46.75,0,*6A
1515953298.54,10489,9.0,73334.3,-14.47,-46.97,-46.75,0,*6E
1515953299.81,10490,9.0,73336.8,-14.47,-46.75,-46.69,0,*67
1515953301.05,10491,9.0,73332.3,-14.47,-46.75,-46.75,0,*6B
1515953302.3,10492,9.0,73334.3,-14.45,-46.75,-46.69,0,*67
1515953303.55,10493,9.0,73332.5,-14.47,-46.75,-46.75,0,*69
1515953304.84,10494,9.0,73338.5,-14.47,-46.69,-46.69,0,*6E
1515953306.06,10495,9.0,73338.3,-14.45,-46.75,-46.75,0,*6D
1515953307.31,10496,9.0,73332.8,-14.47,-46.75,-46.75,0,*6C
1515953308.56,10497,9.0,73334.5,-14.47,-46.75,-46.75,0,*6D
1515953309.83,10498,9.0,73332.5,-14.45,-46.69,-46.69,0,*60
1515953311.1,10499,9.0,73332.5,-14.47,-46.55,-46.69,0,*6C